SL-8 DEB

基本信息
目录编号:
12404
目录名称:
SL-8 DEB
国际标识:
1980-022C
轨道中心:
EARTH
物体状态:
在轨
发射日期:
1980-03-17 UTC
轨道信息
数据来源: 国际轨道数据
星历时间: 2026-07-27T16:15:32+0800
半长轴: 7062.662km
偏心率: 0.000551
轨道倾角: 82.906°
近地点辐角: 287.044°
升交点赤经: 170.114°
平近点角: 73.017°
近地点: 680.633km
远地点: 688.417km
周期: 98.449分钟
每日圈数: 14.62683
详细信息
发射场:
PKMTR
轨道高度:
LEO
数据来源:
AOE Integration Group
参考系:
TEME
时间系统:
UTC
历元类型:
SGP4
2D轨道图
3D轨道图
轨道高度分析图
轨道倾角分析图
轨道综合分析图
查看轨道综合分析图